Probability
77 74 100 100 94 87 81 77 42 26 6 0 3 3 3 0 0 3 0 6 10 6 6 3 0 0 0 0 0 0 0 0 0 0 0 0 0 0 0 0 0 0 0
77 68 100 100 94 90 84 58 35 26 16 3 3 3 3 0 0 0 3 0 3 3 0 3 0 0 0 0 0 0 0 0 0 0 0 0 0 0 0 0 0 0 0
71 55 100 100 100 97 87 42 26 16 13 10 3 6 6 6 0 0 0 0 0 0 0 0 0 0 0 0 0 0 0 0 0 0 0 0 0 0 0 0 0 0 0
58 32 84 100 100 97 84 39 23 10 3 3 10 6 13 10 0 0 0 0 0 0 0 0 0 0 0 0 0 0 0 0 0 0 0 0 0 0 0 0 0 0 0
48 32 97 100 100 97 77 42 23 6 10 13 13 6 13 16 0 0 0 0 0 0 0 0 0 0 0 0 0 0 0 0 0 0 0 0 0 0 0 0 0 0 0
52 61 94 100 100 94 71 35 19 16 16 16 16 6 13 10 0 0 0 0 0 0 0 0 0 0 0 0 0 0 0 0 0 0 0 0 0 0 0 0 0 0 0
77 74 94 100 100 87 71 32 26 19 16 29 29 13 16 10 0 0 0 0 0 0 0 0 0 0 0 0 0 0 0 0 0 0 0 0 0 0 0 0 0 0 0
87 74 97 100 94 87 74 45 29 13 16 26 32 10 13 3 0 0 0 0 0 0 0 0 0 0 0 0 0 0 0 0 0 0 0 0 0 0 0 0 0 0 0
84 81 90 84 84 81 68 35 23 16 29 42 35 19 10 0 0 0 0 0 0 0 0 0 0 0 0 0 0 0 0 0 0 0 0 0 0 0 0 0 0 0 0
74 81 55 52 48 45 29 19 6 3 10 23 10 0 0 0 0 0 0 0 0 0 0 0 0 0 0 0 0 0 0 0 0 0 0 0 0 0 0 0 0 0 0
71 74 48 35 32 16 13 3 0 0 0 0 0 0 0 0 0 0 0 0 0 0 0 0 0 0 0 0 0 0 0 0 0 0 0 0 0 0 0 0 0 0 0
71 77 58 42 42 26 16 0 0 0 0 0 0 0 0 0 0 0 0 0 0 0 0 0 0 0 0 0 0 0 0 0 0 0 0 0 0 0 0 0 0 0 0
48 68 74 55 52 32 16 10 3 0 0 0 0 0 0 0 0 0 0 0 0 0 0 0 0 0 0 0 0 0 0 0 0 0 0 0 0 0 0 0 0 0 0
39 48 58 48 48 29 19 16 13 3 3 0 0 0 0 0 0 0 0 0 0 0 0 0 0 0 0 0 0 0 0 0 0 0 0 0 0 0 0 0 0 0 0
39 32 35 42 39 29 23 16 6 3 0 0 0 0 0 0 0 0 0 0 0 0 0 0 0 0 0 0 0 0 0 0 0 0 0 0 0 0 0 0 0 0 0
19 13 23 29 35 32 16 13 3 3 0 0 0 0 0 0 0 0 0 0 0 0 0 0 0 0 0 0 0 0 0 0 0 0 0 0 0 0 0 0 0 0 0
26 10 10 13 19 26 13 10 3 3 0 0 0 0 0 0 0 0 0 0 0 0 0 0 0 0 0 0 0 0 0 0 0 0 0 0 0 0 0 0 0 0 0
23 19 16 10 16 10 10 10 6 3 0 0 0 0 0 0 0 0 0 0 0 0 0 0 0 0 0 0 0 0 0 0 0 0 0 0 0 0 0 0 0 0 0
16 16 10 10 10 6 13 6 3 0 0 0 0 0 0 0 0 0 0 0 0 0 0 0 0 0 0 0 0 0 0 0 0 0 0 0 0 0 0 0 0 0 0
13 16 19 16 10 6 6 3 3 0 0 0 0 0 0 0 0 0 0 0 0 0 0 0 0 0 0 0 0 0 0 0 0 0 0 0 0 0 0 0 0 0 0
13 16 23 23 6 6 6 3 3 0 0 0 0 0 0 0 0 0 0 0 0 0 0 0 0 0 0 0 0 0 0 0 0 0 0 0 0 0 0 0 0 0 0
16 23 19 19 6 3 6 6 6 3 3 0 0 0 0 0 0 0 0 0 0 0 0 0 0 0 0 0 0 0 0 0 0 0 0 0 0 0 0 0 0 0 0
3 10 10 13 13 6 3 3 3 3 3 0 0 0 0 0 0 0 0 0 0 0 0 0 0 0 0 0 0 0 0 0 0 0 0 0 0 0 0 0 0 0 0
0 0 3 3 3 10 10 10 6 3 0 0 0 0 0 0 0 0 0 0 0 0 0 0 0 0 0 0 0 0 0 0 0 0 0 0 0 0 0 0 0 0 0
0 0 0 0 3 3 10 6 3 0 0 0 0 0 0 0 0 0 0 0 0 0 0 0 0 0 0 0 0 0 0 0 0 0 0 0 0 0 0 0 0 0 0
0 0 0 0 0 0 0 3 0 0 0 0 0 0 0 0 0 0 0 0 0 0 0 0 0 0 0 0 0 0 0 0 0 0 0 0 0 0 0 0 0 0 0
Height
5883 5885 5886 5888 5890 5891 5892 5893 5894 5895 5896 5896 5896 5896 5897 5897 5897 5897 5897 5897 5897 5896 5896 5895 5895 5894 5894 5893 5892 5891 5891 5890 5889 5888 5887 5886 5885 5884 5883 5881 5880 5878 5876
5881 5883 5885 5887 5888 5890 5891 5892 5893 5894 5895 5895 5896 5896 5896 5897 5897 5897 5897 5896 5896 5896 5895 5895 5894 5894 5893 5892 5892 5891 5890 5889 5889 5888 5887 5886 5884 5883 5882 5880 5879 5877 5875
5879 5881 5883 5885 5887 5888 5890 5891 5892 5893 5894 5895 5895 5896 5896 5896 5896 5896 5896 5896 5895 5895 5894 5894 5893 5893 5892 5892 5891 5890 5890 5889 5888 5887 5886 5885 5883 5882 5880 5879 5877 5875 5873
5877 5879 5881 5883 5885 5887 5888 5889 5891 5892 5893 5894 5894 5895 5895 5895 5895 5895 5895 5895 5895 5894 5894 5893 5893 5892 5892 5891 5890 5890 5889 5888 5887 5886 5885 5884 5882 5881 5879 5878 5876 5874 5872
5874 5877 5879 5881 5883 5885 5886 5888 5889 5890 5891 5892 5893 5894 5894 5894 5894 5894 5894 5894 5894 5893 5893 5892 5892 5891 5891 5890 5889 5889 5888 5887 5886 5885 5884 5883 5881 5879 5878 5876 5874 5872 5870
5871 5874 5876 5879 5881 5882 5884 5886 5887 5888 5890 5891 5892 5893 5893 5893 5893 5893 5893 5893 5893 5892 5892 5891 5891 5890 5890 5889 5888 5888 5887 5886 5885 5884 5882 5881 5880 5878 5876 5874 5872 5870 5868
5868 5871 5874 5876 5878 5880 5882 5884 5885 5887 5888 5889 5890 5891 5892 5892 5892 5892 5892 5892 5891 5891 5890 5890 5889 5889 5888 5888 5887 5886 5885 5884 5883 5882 5881 5879 5878 5876 5874 5872 5870 5867 5865
5865 5868 5871 5874 5876 5878 5880 5881 5883 5884 5886 5887 5888 5889 5890 5890 5890 5890 5890 5890 5890 5889 5889 5888 5888 5887 5887 5886 5885 5884 5883 5882 5881 5880 5879 5877 5875 5873 5871 5869 5867 5864 5862
5861 5865 5868 5871 5873 5875 5877 5879 5881 5882 5884 5885 5886 5887 5888 5889 5889 5889 5888 5888 5888 5888 5887 5887 5886 5886 5885 5884 5883 5882 5881 5880 5879 5878 5876 5874 5872 5870 5868 5866 5864 5861 5859
5858 5862 5865 5868 5870 5873 5875 5876 5878 5880 5881 5883 5884 5885 5886 5887 5887 5887 5886 5886 5886 5886 5885 5885 5884 5884 5883 5882 5881 5880 5879 5878 5877 5875 5873 5872 5870 5867 5865 5863 5860 5857 5855
5854 5858 5862 5865 5867 5870 5872 5874 5876 5877 5879 5880 5882 5883 5884 5884 5885 5885 5885 5884 5884 5883 5883 5883 5882 5881 5881 5880 5879 5878 5877 5875 5874 5872 5870 5869 5866 5864 5862 5859 5856 5853 5850
5850 5854 5857 5861 5864 5867 5869 5871 5873 5874 5876 5878 5879 5880 5881 5882 5883 5883 5883 5882 5882 5881 5881 5880 5880 5879 5878 5877 5876 5875 5874 5873 5871 5869 5867 5865 5863 5860 5858 5855 5852 5849 5846
5845 5849 5853 5857 5860 5863 5865 5867 5869 5871 5873 5875 5876 5877 5878 5879 5880 5880 5880 5880 5879 5879 5878 5878 5877 5876 5876 5875 5874 5872 5871 5869 5868 5866 5864 5861 5859 5856 5854 5851 5848 5845 5841
5841 5845 5849 5853 5856 5859 5862 5864 5866 5868 5869 5871 5873 5874 5875 5876 5876 5877 5877 5877 5877 5876 5876 5875 5874 5874 5873 5872 5870 5869 5868 5866 5864 5862 5860 5857 5855 5852 5849 5846 5843 5840 5836
5836 5841 5845 5848 5851 5855 5857 5860 5862 5864 5866 5867 5869 5870 5871 5872 5873 5873 5874 5874 5874 5873 5873 5872 5871 5870 5869 5868 5867 5865 5863 5862 5859 5857 5855 5853 5850 5847 5844 5841 5838 5834 5830
5831 5836 5840 5843 5846 5850 5852 5855 5857 5859 5861 5863 5865 5866 5867 5868 5869 5869 5870 5870 5870 5869 5869 5868 5867 5866 5865 5864 5862 5861 5859 5857 5855 5852 5850 5848 5845 5841 5838 5835 5832 5828 5824
5826 5830 5834 5838 5841 5844 5847 5850 5852 5854 5856 5858 5860 5861 5863 5864 5864 5865 5865 5865 5865 5865 5864 5863 5862 5861 5860 5859 5857 5856 5854 5852 5849 5847 5844 5842 5839 5836 5832 5829 5825 5822 5818
5821 5825 5829 5833 5836 5839 5841 5844 5847 5849 5851 5853 5855 5856 5857 5859 5860 5860 5860 5860 5860 5860 5859 5858 5857 5856 5855 5853 5852 5850 5848 5846 5844 5841 5838 5835 5832 5829 5826 5822 5818 5814 5811
5815 5819 5823 5827 5830 5833 5836 5838 5841 5843 5845 5847 5849 5851 5852 5853 5854 5855 5855 5854 5854 5854 5853 5852 5851 5850 5849 5847 5846 5844 5842 5840 5837 5834 5831 5828 5825 5822 5818 5815 5811 5807 5803
5808 5813 5817 5820 5824 5827 5830 5832 5835 5837 5839 5841 5843 5844 5846 5847 5848 5848 5848 5848 5848 5847 5847 5846 5845 5844 5842 5841 5839 5838 5836 5833 5830 5827 5824 5821 5818 5814 5811 5807 5804 5800 5796
5802 5806 5810 5814 5817 5820 5823 5826 5828 5830 5833 5835 5836 5837 5839 5840 5841 5841 5841 5841 5841 5840 5840 5839 5837 5836 5835 5833 5832 5831 5829 5826 5823 5820 5817 5813 5810 5806 5803 5799 5795 5791 5788
5795 5799 5803 5807 5810 5813 5816 5819 5821 5823 5826 5827 5829 5830 5831 5832 5833 5833 5834 5834 5833 5833 5832 5831 5830 5828 5827 5825 5823 5822 5821 5820 5816 5813 5810 5806 5802 5798 5795 5791 5787 5783 5780
5788 5792 5796 5799 5803 5806 5809 5811 5814 5816 5818 5820 5821 5822 5823 5824 5825 5825 5826 5825 5825 5825 5824 5823 5821 5820 5819 5817 5814 5812 5811 5810 5808 5805 5802 5798 5794 5790 5786 5782 5778 5774 5771
5780 5784 5788 5792 5795 5798 5801 5803 5806 5808 5810 5811 5812 5814 5815 5815 5816 5817 5817 5817 5816 5816 5815 5814 5813 5811 5810 5808 5806 5804 5802 5799 5797 5795 5792 5788 5785 5781 5777 5773 5769 5766 5762
5772 5776 5780 5783 5787 5789 5792 5795 5797 5799 5801 5802 5804 5805 5806 5807 5807 5807 5807 5807 5807 5806 5806 5805 5803 5802 5800 5799 5797 5795 5793 5790 5788 5785 5783 5779 5775 5771 5768 5764 5761 5757 5753
5763 5767 5771 5774 5778 5780 5783 5786 5788 5790 5792 5793 5794 5796 5796 5797 5798 5798 5797 5797 5797 5796 5796 5795 5794 5792 5791 5789 5787 5785 5783 5781 5779 5776 5773 5770 5766 5763 5759 5755 5752 5748 5745
Wind_Speed
16 14 12 11 11 10 9 8 7 6 4 3 2 2 2 1 1 1 1 2 3 4 5 6 6 7 8 9 9 10 10 11 12 12 13 14 15 16 17 18 18 19 19
16 15 13 12 12 11 10 9 7 6 5 4 3 3 2 2 1 1 2 3 4 4 5 6 6 7 8 8 8 9 10 11 12 12 13 14 15 16 17 18 19 20 20
18 16 14 13 11 11 10 9 8 7 6 5 5 4 3 2 1 2 3 4 4 5 5 6 6 7 7 8 8 9 9 10 11 12 13 14 16 17 18 19 20 21 21
19 17 15 13 11 10 10 9 9 8 7 6 6 5 4 3 2 3 4 4 5 5 6 6 6 6 7 7 8 8 9 10 11 12 13 15 16 17 18 20 21 22 22
21 18 16 14 12 11 10 10 9 9 8 7 7 6 5 4 3 3 4 5 5 6 6 6 6 6 6 7 8 8 9 10 11 13 14 15 16 18 19 21 22 23 24
23 20 17 15 13 12 11 11 10 10 9 8 7 7 5 4 4 3 4 5 5 6 6 6 6 6 7 7 8 9 10 11 12 13 15 16 17 19 21 22 23 24 25
24 21 18 17 15 13 12 11 11 10 10 9 8 7 6 5 5 4 5 5 5 6 6 6 6 7 7 8 9 10 11 12 13 14 16 17 19 20 22 24 25 26 26
25 23 19 18 16 15 14 13 12 11 10 10 9 8 7 6 6 5 5 5 6 6 6 6 7 7 8 9 10 11 12 14 15 16 18 19 21 22 24 25 26 27 28
27 24 21 19 18 17 16 15 14 13 12 11 10 9 8 7 7 7 6 7 7 7 7 8 8 9 10 11 12 13 14 15 17 18 20 21 23 24 25 26 28 29 29
28 26 23 21 20 19 18 17 16 15 14 12 11 10 9 9 8 8 8 8 8 9 9 9 10 11 11 12 13 15 16 17 19 20 21 23 24 26 27 28 30 31 31
29 27 26 24 22 21 20 19 18 17 16 14 13 12 11 10 10 9 9 10 10 10 11 11 12 13 13 14 15 16 17 19 20 22 23 25 26 27 29 30 31 32 33
31 29 27 25 24 23 22 22 21 20 18 17 15 14 13 12 11 11 11 11 11 12 12 13 14 14 15 16 17 18 19 20 21 23 25 26 28 29 31 32 33 34 34
33 32 29 27 25 24 24 24 23 22 20 19 17 16 15 14 13 13 12 12 12 13 14 15 15 16 17 18 19 20 21 23 24 25 27 28 30 31 32 33 35 35 35
35 33 31 29 27 25 25 25 25 24 23 21 20 18 17 16 15 14 14 14 14 15 16 16 17 18 19 20 21 22 23 25 26 27 29 30 32 33 34 35 36 37 37
37 35 33 32 30 27 26 26 26 26 25 24 22 21 19 18 17 16 16 17 17 17 18 19 19 20 21 22 23 24 25 27 28 30 31 32 34 35 36 37 38 38 38
40 38 36 34 32 30 29 28 28 27 27 26 24 23 22 21 20 19 19 19 19 19 20 21 21 22 23 24 25 26 27 29 30 32 33 34 35 36 37 39 39 39 39
42 40 38 37 35 33 32 31 30 29 29 28 27 26 25 23 22 22 21 21 21 22 22 23 24 24 25 26 27 28 30 31 32 34 35 36 36 37 39 40 41 40 40
44 42 41 39 38 36 35 34 32 31 31 31 30 29 28 26 25 25 24 24 24 24 24 25 26 27 28 29 30 31 32 33 34 36 37 37 38 39 40 41 42 42 40
45 44 43 42 41 39 37 36 34 33 33 33 33 32 31 30 29 28 28 28 27 27 27 28 28 29 30 31 32 33 34 35 36 37 38 39 40 41 42 43 43 42 41
46 45 44 43 42 41 39 38 36 35 35 35 35 34 34 33 32 32 31 31 30 30 30 31 31 32 32 33 34 35 36 37 38 38 39 40 42 42 43 44 43 42 42
46 46 45 44 43 42 41 40 38 37 37 37 37 38 37 36 35 35 34 34 34 33 33 34 34 35 35 36 37 37 37 38 39 39 40 41 43 44 44 44 44 43 42
47 45 44 45 44 44 43 42 40 39 39 39 39 39 40 39 38 38 38 38 37 37 37 37 37 38 38 39 40 40 39 38 39 40 40 41 43 44 45 45 45 43 42
48 47 46 45 45 44 44 43 42 42 41 40 40 41 41 41 41 41 41 41 40 40 40 40 40 41 41 41 41 42 42 41 41 41 41 42 43 44 44 45 44 43 42
47 48 48 47 46 46 45 44 44 43 43 43 44 44 44 44 44 44 45 44 44 44 43 43 43 43 43 42 43 43 44 44 43 43 43 44 44 44 45 44 44 43 42
46 47 48 49 49 49 48 47 46 46 46 47 47 46 46 47 47 47 47 47 46 46 45 45 45 45 44 44 44 43 43 44 44 44 44 44 45 45 45 44 43 42 41
45 47 48 48 48 49 49 49 49 49 49 49 48 48 49 49 48 48 48 48 48 47 46 46 46 45 45 44 44 44 44 44 44 44 44 44 45 45 44 43 42 41 41
Wind_Direction
224 227 230 233 235 240 244 243 243 248 245 237 231 226 226 228 235 282 326 338 343 346 347 347 350 351 352 354 356 359 1 1 360 359 358 357 355 354 353 352 350 348 347
224 227 230 231 235 240 240 237 239 240 235 227 223 221 222 224 243 298 323 332 337 341 343 343 346 348 349 351 355 357 358 357 357 357 356 355 354 353 351 350 348 347 345
225 227 229 231 234 237 237 235 233 233 227 222 222 224 221 226 260 305 323 332 336 338 339 340 343 344 344 347 350 352 354 354 354 354 353 352 351 351 350 349 347 345 344
225 227 229 230 232 233 234 231 228 227 224 221 223 224 224 237 273 304 320 330 333 335 337 338 341 341 341 342 345 348 350 352 352 351 351 350 349 349 348 347 346 344 342
225 227 230 231 231 232 233 231 226 224 222 221 222 223 229 244 270 298 316 327 330 332 335 338 339 339 339 339 342 345 347 348 348 348 347 347 346 346 346 345 343 341 340
225 227 230 233 232 232 233 231 227 224 223 222 222 225 233 245 263 288 309 320 326 328 332 334 335 336 337 337 339 340 341 342 343 344 344 344 344 344 344 343 342 340 338
224 226 229 232 233 234 234 232 228 226 225 223 223 226 236 249 264 282 298 310 319 325 328 330 330 332 333 333 335 336 336 337 338 339 340 341 341 342 341 340 340 338 337
225 225 227 232 235 236 236 232 229 228 228 227 229 235 245 256 269 283 295 304 314 319 322 325 326 327 328 328 330 332 332 333 335 336 336 337 337 338 338 338 338 336 335
227 229 229 233 236 238 237 233 230 229 229 231 235 243 252 263 274 285 294 303 311 315 317 318 319 321 323 325 327 328 330 331 331 332 333 334 334 334 334 334 335 334 332
229 232 234 236 238 239 239 235 231 229 230 233 238 246 256 266 276 285 293 300 307 312 313 314 316 318 321 323 324 326 327 328 329 329 329 330 330 330 330 331 331 331 330
231 235 238 239 240 241 240 236 233 230 230 234 238 245 254 263 273 282 291 297 302 307 309 311 313 315 317 319 321 323 324 325 325 326 326 326 327 327 327 328 329 328 328
232 237 241 242 243 243 241 239 235 232 232 234 239 245 252 260 269 277 284 291 296 301 304 307 309 311 313 315 317 318 320 321 322 323 323 323 324 324 324 326 327 326 325
230 237 242 246 247 245 244 242 238 235 234 235 239 245 251 258 265 273 280 286 292 296 299 302 305 308 310 311 312 314 316 317 318 319 320 320 321 321 322 323 324 324 323
229 236 242 247 250 249 248 246 242 239 237 237 240 245 251 257 264 271 278 283 288 292 295 298 301 304 306 308 309 311 313 314 316 317 318 318 319 319 320 321 322 322 321
230 235 242 247 250 252 251 249 246 244 242 241 243 247 252 257 263 269 276 281 285 289 293 296 299 301 303 305 307 309 311 312 313 314 315 316 317 318 318 320 321 321 320
232 235 240 246 249 252 252 252 250 248 247 246 247 249 254 258 263 269 275 280 284 288 291 294 297 299 301 302 304 306 308 309 310 311 312 314 315 316 317 319 319 319 318
234 238 241 245 248 251 253 254 253 251 250 250 251 253 256 260 265 270 275 280 284 287 289 292 295 297 298 300 302 304 306 307 308 309 310 311 312 314 316 317 318 317 317
236 239 242 246 248 250 253 255 255 254 253 254 254 256 259 262 266 271 276 280 283 286 289 291 293 295 297 298 300 302 303 305 307 308 309 309 311 313 315 316 316 316 315
236 239 242 245 248 250 253 255 255 256 256 256 257 259 261 264 267 271 276 280 283 286 288 291 293 295 296 297 299 301 302 304 306 308 308 309 310 312 314 314 315 314 313
237 239 242 244 247 249 252 253 254 256 257 258 260 261 263 266 269 272 276 280 283 285 288 290 292 293 295 296 298 299 301 303 305 307 307 308 309 311 312 313 313 312 311
239 240 242 244 246 248 250 252 254 255 257 259 261 262 264 267 269 272 276 279 282 284 287 289 291 292 293 295 296 298 300 302 303 305 306 307 308 309 311 311 311 310 309
239 242 244 245 247 248 248 251 253 255 257 260 262 264 265 267 270 273 275 278 280 283 286 288 290 291 293 294 296 297 298 300 301 303 304 305 306 308 309 309 309 308 308
238 241 244 245 247 249 250 251 253 255 257 260 263 265 266 268 270 273 276 278 280 282 284 286 288 290 292 293 295 296 298 299 300 302 303 304 305 306 307 307 307 307 306
241 241 243 245 247 249 251 253 254 256 258 260 263 265 267 269 271 273 275 277 279 281 283 285 287 289 291 292 293 295 297 298 300 301 303 304 305 306 306 306 306 305 305
242 243 244 245 247 249 251 253 254 257 259 261 264 266 268 270 272 274 275 277 278 280 282 284 285 287 289 291 292 294 295 297 299 300 302 303 304 304 305 304 304 304 304
244 245 246 246 248 250 252 254 256 258 260 262 265 266 268 269 272 273 274 276 277 279 281 283 285 286 288 289 291 292 294 296 297 299 300 301 302 302 303 303 303 303 303